TimeEST,TemperatureF,Dew PointF,Humidity,Sea Level PressureIn,VisibilityMPH,Wind Direction,Wind SpeedMPH,Gust SpeedMPH,PrecipitationIn,Events,Conditions,WindDirDegrees,DateUTC
12:52 AM,35.1,25.0,67,29.69,10.0,NW,5.8,-,N/A,,Overcast,320,2013-03-02 05:52:00
1:52 AM,35.1,25.0,67,29.68,10.0,WNW,5.8,-,N/A,,Overcast,300,2013-03-02 06:52:00
2:52 AM,34.0,25.0,70,29.68,10.0,WNW,8.1,-,N/A,,Overcast,300,2013-03-02 07:52:00
3:52 AM,33.1,25.0,72,29.68,10.0,NW,8.1,-,N/A,,Overcast,320,2013-03-02 08:52:00
4:52 AM,32.0,24.1,73,29.68,10.0,WNW,3.5,-,N/A,,Mostly Cloudy,300,2013-03-02 09:52:00
5:13 AM,32.0,24.8,75,29.67,10.0,NW,3.5,-,N/A,,Overcast,310,2013-03-02 10:13:00
5:45 AM,30.2,24.8,80,29.67,10.0,NW,4.6,-,N/A,,Partly Cloudy,310,2013-03-02 10:45:00
5:52 AM,30.9,24.1,76,29.68,10.0,Calm,Calm,-,N/A,,Partly Cloudy,0,2013-03-02 10:52:00
6:52 AM,30.9,24.1,76,29.68,10.0,Calm,Calm,-,N/A,,Clear,0,2013-03-02 11:52:00
7:52 AM,36.0,24.1,62,29.68,10.0,NW,11.5,20.7,N/A,,Clear,320,2013-03-02 12:52:00
8:52 AM,37.0,25.0,62,29.69,10.0,NW,13.8,-,N/A,,Mostly Cloudy,320,2013-03-02 13:52:00
9:52 AM,37.0,25.0,62,29.68,10.0,NNW,10.4,-,N/A,,Overcast,330,2013-03-02 14:52:00
10:52 AM,37.9,25.0,60,29.68,10.0,North,13.8,18.4,N/A,,Overcast,360,2013-03-02 15:52:00
11:52 AM,37.9,26.1,62,29.67,10.0,NNW,10.4,-,N/A,,Overcast,330,2013-03-02 16:52:00
12:52 PM,37.9,27.0,65,29.65,10.0,NNW,11.5,-,N/A,,Overcast,340,2013-03-02 17:52:00
1:52 PM,39.0,27.0,62,29.64,10.0,NW,6.9,-,N/A,,Overcast,310,2013-03-02 18:52:00
2:52 PM,39.9,27.0,60,29.64,10.0,West,3.5,-,N/A,,Overcast,270,2013-03-02 19:52:00
3:52 PM,39.0,27.0,62,29.64,10.0,NNW,4.6,-,N/A,,Overcast,330,2013-03-02 20:52:00
4:52 PM,37.9,26.1,62,29.65,10.0,NNW,8.1,-,N/A,,Overcast,340,2013-03-02 21:52:00
5:52 PM,37.9,26.1,62,29.66,10.0,NNW,8.1,-,N/A,,Overcast,340,2013-03-02 22:52:00
6:52 PM,37.0,25.0,62,29.67,10.0,NW,9.2,-,N/A,,Overcast,320,2013-03-02 23:52:00
7:52 PM,36.0,24.1,62,29.67,10.0,NW,9.2,-,N/A,,Overcast,320,2013-03-03 00:52:00
8:52 PM,36.0,25.0,64,29.69,10.0,NNW,9.2,-,N/A,,Overcast,330,2013-03-03 01:52:00
9:52 PM,35.1,25.0,67,29.68,10.0,NNW,8.1,-,N/A,,Overcast,340,2013-03-03 02:52:00
10:52 PM,34.0,25.0,70,29.66,10.0,NW,8.1,-,N/A,,Overcast,320,2013-03-03 03:52:00
11:52 PM,34.0,24.1,67,29.65,10.0,NW,3.5,-,N/A,,Overcast,320,2013-03-03 04:52:00